Time,TemperatureF,DewpointF,PressureIn,WindDirection,WindDirectionDegrees,WindSpeedMPH,WindSpeedGustMPH,Humidity,HourlyPrecipIn,Conditions,Clouds,dailyrainin,SoftwareType,DateUTC
2013-07-25 00:00:00,54.0,48.3,30.09,NE,49,0.0,0.0,81,0.00,,,0.01,Wunderground v.1.15,2013-07-25 04:00:00,
2013-07-25 00:05:00,53.8,48.1,30.09,NE,49,0.0,0.0,81,0.00,,,0.00,Wunderground v.1.15,2013-07-25 04:05:00,
2013-07-25 00:10:00,53.7,48.0,30.09,NE,49,0.0,0.0,81,0.00,,,0.00,Wunderground v.1.15,2013-07-25 04:10:00,
2013-07-25 00:15:00,53.6,47.9,30.10,NE,49,0.0,0.0,81,0.00,,,0.00,Wunderground v.1.15,2013-07-25 04:15:00,
2013-07-25 00:20:00,53.6,48.2,30.10,NE,49,0.0,0.0,82,0.00,,,0.00,Wunderground v.1.15,2013-07-25 04:20:00,
2013-07-25 00:25:00,53.5,48.1,30.10,NE,49,0.0,0.0,82,0.00,,,0.00,Wunderground v.1.15,2013-07-25 04:25:00,
2013-07-25 00:30:00,53.4,48.0,30.10,NE,50,0.0,0.0,82,0.00,,,0.00,Wunderground v.1.15,2013-07-25 04:30:00,
2013-07-25 00:35:00,53.3,48.3,30.10,NE,50,0.0,0.0,83,0.00,,,0.00,Wunderground v.1.15,2013-07-25 04:35:00,
2013-07-25 00:45:00,53.2,47.8,30.10,NNE,15,0.0,1.0,82,0.00,,,0.00,Wunderground v.1.15,2013-07-25 04:45:00,
2013-07-25 00:50:00,53.4,48.0,30.10,NNE,15,0.0,0.0,82,0.00,,,0.00,Wunderground v.1.15,2013-07-25 04:50:00,
2013-07-25 00:55:00,53.7,47.7,30.09,NNE,28,0.0,3.0,80,0.00,,,0.00,Wunderground v.1.15,2013-07-25 04:55:00,
2013-07-25 01:00:00,53.9,47.5,30.10,NNE,28,1.0,1.0,79,0.00,,,0.00,Wunderground v.1.15,2013-07-25 05:00:00,
2013-07-25 01:05:00,54.1,47.4,30.10,ENE,76,1.0,1.0,78,0.00,,,0.00,Wunderground v.1.15,2013-07-25 05:05:00,
2013-07-25 01:10:00,54.1,48.1,30.11,East,80,1.0,1.0,80,0.00,,,0.00,Wunderground v.1.15,2013-07-25 05:10:00,
2013-07-25 01:20:00,53.9,47.2,30.10,NE,53,1.0,1.0,78,0.00,,,0.00,Wunderground v.1.15,2013-07-25 05:20:00,
2013-07-25 01:25:00,53.9,47.5,30.10,NE,53,1.0,1.0,79,0.00,,,0.00,Wunderground v.1.15,2013-07-25 05:25:00,
2013-07-25 01:35:00,53.3,47.3,30.09,NE,53,0.0,1.0,80,0.00,,,0.00,Wunderground v.1.15,2013-07-25 05:35:00,
2013-07-25 01:45:00,52.8,46.8,30.10,NE,53,0.0,0.0,80,0.00,,,0.00,Wunderground v.1.15,2013-07-25 05:45:00,
2013-07-25 01:55:00,52.6,46.9,30.10,WNW,288,0.0,1.0,81,0.00,,,0.00,Wunderground v.1.15,2013-07-25 05:55:00,
2013-07-25 02:00:00,52.5,47.2,30.09,WSW,242,0.0,1.0,82,0.00,,,0.00,Wunderground v.1.15,2013-07-25 06:00:00,
2013-07-25 02:05:00,52.3,46.6,30.09,South,175,0.0,1.0,81,0.00,,,0.00,Wunderground v.1.15,2013-07-25 06:05:00,
2013-07-25 02:10:00,52.3,46.6,30.09,SSW,196,1.0,1.0,81,0.00,,,0.00,Wunderground v.1.15,2013-07-25 06:10:00,
2013-07-25 02:15:00,52.2,46.5,30.09,NNE,19,1.0,1.0,81,0.00,,,0.00,Wunderground v.1.15,2013-07-25 06:15:00,
2013-07-25 02:25:00,52.4,46.4,30.09,SSW,211,1.0,2.0,80,0.00,,,0.00,Wunderground v.1.15,2013-07-25 06:25:00,
2013-07-25 02:35:00,52.2,45.9,30.10,WSW,240,1.0,1.0,79,0.00,,,0.00,Wunderground v.1.15,2013-07-25 06:35:00,
2013-07-25 02:40:00,52.2,45.9,30.10,SW,234,1.0,2.0,79,0.00,,,0.00,Wunderground v.1.15,2013-07-25 06:40:00,
2013-07-25 02:45:00,52.3,46.0,30.10,West,271,1.0,2.0,79,0.00,,,0.00,Wunderground v.1.15,2013-07-25 06:45:00,
2013-07-25 02:50:00,52.5,46.2,30.10,SSW,207,1.0,1.0,79,0.00,,,0.00,Wunderground v.1.15,2013-07-25 06:50:00,
2013-07-25 03:00:00,52.1,46.1,30.10,WSW,240,0.0,0.0,80,0.00,,,0.00,Wunderground v.1.15,2013-07-25 07:00:00,
2013-07-25 03:05:00,52.0,46.0,30.10,SW,236,1.0,1.0,80,0.00,,,0.00,Wunderground v.1.15,2013-07-25 07:05:00,
2013-07-25 03:10:00,52.0,45.7,30.10,NE,40,1.0,1.0,79,0.00,,,0.00,Wunderground v.1.15,2013-07-25 07:10:00,
2013-07-25 03:20:00,51.8,45.8,30.10,SSW,211,1.0,1.0,80,0.00,,,0.00,Wunderground v.1.15,2013-07-25 07:20:00,
2013-07-25 03:25:00,51.8,45.8,30.11,SSW,211,0.0,1.0,80,0.00,,,0.00,Wunderground v.1.15,2013-07-25 07:25:00,
2013-07-25 03:30:00,51.6,46.3,30.11,SSW,211,0.0,0.0,82,0.00,,,0.00,Wunderground v.1.15,2013-07-25 07:30:00,
2013-07-25 03:35:00,51.5,45.9,30.11,SSW,203,0.0,2.0,81,0.00,,,0.00,Wunderground v.1.15,2013-07-25 07:35:00,
2013-07-25 03:40:00,51.3,45.7,30.11,SSW,203,0.0,0.0,81,0.00,,,0.00,Wunderground v.1.15,2013-07-25 07:40:00,
2013-07-25 03:45:00,51.3,45.7,30.11,SSW,203,0.0,0.0,81,0.00,,,0.00,Wunderground v.1.15,2013-07-25 07:45:00,
2013-07-25 03:50:00,51.3,45.7,30.11,SSW,203,0.0,0.0,81,0.00,,,0.00,Wunderground v.1.15,2013-07-25 07:50:00,
2013-07-25 03:55:00,51.4,45.8,30.11,SSW,203,0.0,0.0,81,0.00,,,0.00,Wunderground v.1.15,2013-07-25 07:55:00,
2013-07-25 04:00:00,51.4,45.8,30.11,SSW,203,1.0,1.0,81,0.00,,,0.00,Wunderground v.1.15,2013-07-25 08:00:00,
2013-07-25 04:05:00,51.3,45.7,30.12,SSW,203,1.0,1.0,81,0.00,,,0.00,Wunderground v.1.15,2013-07-25 08:05:00,
2013-07-25 04:10:00,51.1,45.5,30.12,SSW,202,1.0,1.0,81,0.00,,,0.00,Wunderground v.1.15,2013-07-25 08:10:00,
2013-07-25 04:15:00,51.0,45.4,30.12,SSW,202,1.0,1.0,81,0.00,,,0.00,Wunderground v.1.15,2013-07-25 08:15:00,
2013-07-25 04:20:00,51.1,45.5,30.12,South,183,1.0,1.0,81,0.00,,,0.00,Wunderground v.1.15,2013-07-25 08:20:00,
2013-07-25 04:25:00,51.2,45.9,30.12,South,182,0.0,1.0,82,0.00,,,0.00,Wunderground v.1.15,2013-07-25 08:25:00,
2013-07-25 04:30:00,51.3,45.3,30.13,SE,142,0.0,0.0,80,0.00,,,0.00,Wunderground v.1.15,2013-07-25 08:30:00,
2013-07-25 04:35:00,51.3,45.3,30.13,SE,142,0.0,0.0,80,0.00,,,0.00,Wunderground v.1.15,2013-07-25 08:35:00,
2013-07-25 04:40:00,51.5,45.5,30.13,SE,137,1.0,1.0,80,0.00,,,0.00,Wunderground v.1.15,2013-07-25 08:40:00,
2013-07-25 04:45:00,51.5,45.5,30.13,SE,137,0.0,1.0,80,0.00,,,0.00,Wunderground v.1.15,2013-07-25 08:45:00,
2013-07-25 04:50:00,51.4,45.4,30.13,SE,137,0.0,0.0,80,0.00,,,0.00,Wunderground v.1.15,2013-07-25 08:50:00,
2013-07-25 04:55:00,51.2,45.6,30.13,SE,137,0.0,0.0,81,0.00,,,0.00,Wunderground v.1.15,2013-07-25 08:55:00,
2013-07-25 05:00:00,51.0,45.0,30.13,SE,137,0.0,1.0,80,0.00,,,0.00,Wunderground v.1.15,2013-07-25 09:00:00,
2013-07-25 05:05:00,51.0,45.4,30.14,SE,137,0.0,1.0,81,0.00,,,0.00,Wunderground v.1.15,2013-07-25 09:05:00,
2013-07-25 05:10:00,51.0,45.0,30.14,SE,137,0.0,0.0,80,0.00,,,0.00,Wunderground v.1.15,2013-07-25 09:10:00,
2013-07-25 05:15:00,50.9,44.9,30.14,SE,138,0.0,0.0,80,0.00,,,0.00,Wunderground v.1.15,2013-07-25 09:15:00,
2013-07-25 05:20:00,51.1,45.1,30.14,SE,138,0.0,0.0,80,0.00,,,0.00,Wunderground v.1.15,2013-07-25 09:20:00,
2013-07-25 05:25:00,51.2,45.2,30.14,SE,138,0.0,0.0,80,0.00,,,0.00,Wunderground v.1.15,2013-07-25 09:25:00,
2013-07-25 05:30:00,51.3,45.7,30.14,SE,142,0.0,0.0,81,0.00,,,0.00,Wunderground v.1.15,2013-07-25 09:30:00,
2013-07-25 05:40:00,51.1,45.8,30.15,SE,142,0.0,0.0,82,0.00,,,0.00,Wunderground v.1.15,2013-07-25 09:40:00,
2013-07-25 05:45:00,50.9,45.6,30.15,SE,142,0.0,0.0,82,0.00,,,0.00,Wunderground v.1.15,2013-07-25 09:45:00,
2013-07-25 05:50:00,50.6,45.3,30.15,SE,146,0.0,1.0,82,0.00,,,0.00,Wunderground v.1.15,2013-07-25 09:50:00,
2013-07-25 05:55:00,50.6,45.3,30.16,SE,146,0.0,1.0,82,0.00,,,0.00,Wunderground v.1.15,2013-07-25 09:55:00,
2013-07-25 06:00:00,50.5,45.5,30.16,SE,146,1.0,1.0,83,0.00,,,0.00,Wunderground v.1.15,2013-07-25 10:00:00,
2013-07-25 06:10:00,50.6,45.3,30.16,SSE,162,1.0,1.0,82,0.00,,,0.00,Wunderground v.1.15,2013-07-25 10:10:00,
2013-07-25 06:15:00,50.8,45.8,30.16,SSE,164,1.0,1.0,83,0.00,,,0.00,Wunderground v.1.15,2013-07-25 10:15:00,
2013-07-25 06:20:00,50.9,45.6,30.16,SSE,164,0.0,0.0,82,0.00,,,0.00,Wunderground v.1.15,2013-07-25 10:20:00,
2013-07-25 06:25:00,51.4,46.7,30.16,SSE,165,0.0,0.0,84,0.00,,,0.00,Wunderground v.1.15,2013-07-25 10:25:00,
2013-07-25 06:30:00,51.5,45.9,30.16,SSE,165,0.0,0.0,81,0.00,,,0.00,Wunderground v.1.15,2013-07-25 10:30:00,
2013-07-25 06:35:00,51.6,46.6,30.16,SSE,164,0.0,1.0,83,0.00,,,0.00,Wunderground v.1.15,2013-07-25 10:35:00,
2013-07-25 06:40:00,51.5,46.2,30.17,ENE,67,0.0,0.0,82,0.00,,,0.00,Wunderground v.1.15,2013-07-25 10:40:00,
2013-07-25 06:45:00,51.5,46.5,30.17,ENE,67,0.0,0.0,83,0.00,,,0.00,Wunderground v.1.15,2013-07-25 10:45:00,
2013-07-25 06:50:00,51.4,46.7,30.17,ENE,67,0.0,0.0,84,0.00,,,0.00,Wunderground v.1.15,2013-07-25 10:50:00,
2013-07-25 06:55:00,51.4,46.4,30.17,ENE,67,0.0,0.0,83,0.00,,,0.00,Wunderground v.1.15,2013-07-25 10:55:00,
2013-07-25 07:00:00,51.6,46.9,30.17,ENE,71,0.0,2.0,84,0.00,,,0.00,Wunderground v.1.15,2013-07-25 11:00:00,
2013-07-25 07:05:00,52.0,47.0,30.18,ENE,71,0.0,2.0,83,0.00,,,0.00,Wunderground v.1.15,2013-07-25 11:05:00,
2013-07-25 07:10:00,52.4,47.1,30.18,East,99,0.0,0.0,82,0.00,,,0.00,Wunderground v.1.15,2013-07-25 11:10:00,
2013-07-25 07:15:00,52.7,47.0,30.18,ENE,68,1.0,1.0,81,0.00,,,0.00,Wunderground v.1.15,2013-07-25 11:15:00,
2013-07-25 07:20:00,52.7,47.4,30.18,ENE,65,1.0,1.0,82,0.00,,,0.00,Wunderground v.1.15,2013-07-25 11:20:00,
2013-07-25 07:25:00,53.0,47.7,30.18,ENE,74,2.0,4.0,82,0.00,,,0.00,Wunderground v.1.15,2013-07-25 11:25:00,
2013-07-25 07:30:00,53.6,47.6,30.18,East,84,2.0,2.0,80,0.00,,,0.00,Wunderground v.1.15,2013-07-25 11:30:00,
2013-07-25 07:35:00,54.1,47.7,30.19,East,96,2.0,2.0,79,0.00,,,0.00,Wunderground v.1.15,2013-07-25 11:35:00,
2013-07-25 07:40:00,54.8,47.4,30.19,ESE,104,2.0,2.0,76,0.00,,,0.00,Wunderground v.1.15,2013-07-25 11:40:00,
2013-07-25 07:50:00,55.5,47.3,30.20,ESE,111,2.0,6.0,74,0.00,,,0.00,Wunderground v.1.15,2013-07-25 11:50:00,
2013-07-25 08:00:00,55.5,47.7,30.20,East,95,3.0,3.0,75,0.00,,,0.00,Wunderground v.1.15,2013-07-25 12:00:00,
2013-07-25 08:10:00,56.0,48.2,30.20,NNE,31,2.0,2.0,75,0.00,,,0.00,Wunderground v.1.15,2013-07-25 12:10:00,
2013-07-25 08:15:00,56.1,47.9,30.20,East,88,3.0,3.0,74,0.00,,,0.00,Wunderground v.1.15,2013-07-25 12:15:00,
2013-07-25 08:20:00,56.3,48.1,30.21,ENE,65,4.0,4.0,74,0.00,,,0.00,Wunderground v.1.15,2013-07-25 12:20:00,
2013-07-25 08:25:00,56.4,48.2,30.21,ENE,74,3.0,4.0,74,0.00,,,0.00,Wunderground v.1.15,2013-07-25 12:25:00,
2013-07-25 08:30:00,56.3,47.8,30.21,ESE,103,3.0,5.0,73,0.00,,,0.00,Wunderground v.1.15,2013-07-25 12:30:00,
2013-07-25 08:35:00,56.2,47.7,30.21,ESE,121,2.0,5.0,73,0.00,,,0.00,Wunderground v.1.15,2013-07-25 12:35:00,
2013-07-25 08:40:00,56.4,47.9,30.21,ESE,105,2.0,4.0,73,0.00,,,0.00,Wunderground v.1.15,2013-07-25 12:40:00,
2013-07-25 08:45:00,56.6,47.3,30.21,East,88,3.0,4.0,71,0.00,,,0.00,Wunderground v.1.15,2013-07-25 12:45:00,
2013-07-25 08:50:00,56.8,47.9,30.21,ESE,112,3.0,4.0,72,0.00,,,0.00,Wunderground v.1.15,2013-07-25 12:50:00,
2013-07-25 08:55:00,57.1,47.8,30.21,East,80,3.0,4.0,71,0.00,,,0.00,Wunderground v.1.15,2013-07-25 12:55:00,
2013-07-25 09:00:00,57.4,47.7,30.21,ENE,76,3.0,5.0,70,0.00,,,0.00,Wunderground v.1.15,2013-07-25 13:00:00,
2013-07-25 09:05:00,57.4,48.4,30.21,SE,129,4.0,5.0,72,0.00,,,0.00,Wunderground v.1.15,2013-07-25 13:05:00,
2013-07-25 09:10:00,57.7,47.6,30.22,ENE,77,4.0,4.0,69,0.00,,,0.00,Wunderground v.1.15,2013-07-25 13:10:00,
2013-07-25 09:15:00,57.8,47.7,30.22,SE,124,4.0,4.0,69,0.00,,,0.00,Wunderground v.1.15,2013-07-25 13:15:00,
2013-07-25 09:20:00,58.2,48.5,30.23,SSE,156,4.0,4.0,70,0.00,,,0.00,Wunderground v.1.15,2013-07-25 13:20:00,
2013-07-25 09:25:00,58.6,48.1,30.23,NE,53,3.0,4.0,68,0.00,,,0.00,Wunderground v.1.15,2013-07-25 13:25:00,
2013-07-25 09:30:00,58.6,48.5,30.22,East,87,3.0,4.0,69,0.00,,,0.00,Wunderground v.1.15,2013-07-25 13:30:00,
2013-07-25 09:40:00,59.0,49.2,30.23,ENE,63,3.0,3.0,70,0.00,,,0.00,Wunderground v.1.15,2013-07-25 13:40:00,
2013-07-25 09:45:00,59.5,48.5,30.22,NE,51,3.0,5.0,67,0.00,,,0.00,Wunderground v.1.15,2013-07-25 13:45:00,
2013-07-25 09:50:00,59.2,48.6,30.22,ENE,63,3.0,5.0,68,0.00,,,0.00,Wunderground v.1.15,2013-07-25 13:50:00,
2013-07-25 09:55:00,59.2,48.6,30.23,NE,53,4.0,5.0,68,0.00,,,0.00,Wunderground v.1.15,2013-07-25 13:55:00,
2013-07-25 10:00:00,59.5,48.9,30.22,NE,41,4.0,8.0,68,0.00,,,0.00,Wunderground v.1.15,2013-07-25 14:00:00,
2013-07-25 10:05:00,59.3,49.1,30.22,ENE,58,5.0,8.0,69,0.00,,,0.00,Wunderground v.1.15,2013-07-25 14:05:00,
2013-07-25 10:10:00,59.6,49.8,30.22,NE,46,4.0,6.0,70,0.00,,,0.00,Wunderground v.1.15,2013-07-25 14:10:00,
2013-07-25 10:20:00,59.8,49.6,30.22,ESE,103,4.0,4.0,69,0.00,,,0.00,Wunderground v.1.15,2013-07-25 14:20:00,
2013-07-25 10:25:00,60.3,50.5,30.22,ENE,74,3.0,4.0,70,0.00,,,0.00,Wunderground v.1.15,2013-07-25 14:25:00,
2013-07-25 10:30:00,60.2,49.6,30.23,NNE,30,3.0,4.0,68,0.00,,,0.00,Wunderground v.1.15,2013-07-25 14:30:00,
2013-07-25 10:35:00,60.3,50.5,30.22,East,101,3.0,5.0,70,0.00,,,0.00,Wunderground v.1.15,2013-07-25 14:35:00,
2013-07-25 10:40:00,60.5,49.9,30.23,ENE,76,3.0,3.0,68,0.00,,,0.00,Wunderground v.1.15,2013-07-25 14:40:00,
2013-07-25 10:45:00,61.0,50.8,30.23,NE,55,3.0,5.0,69,0.00,,,0.00,Wunderground v.1.15,2013-07-25 14:45:00,
2013-07-25 10:50:00,60.8,50.6,30.23,NNE,28,4.0,4.0,69,0.00,,,0.00,Wunderground v.1.15,2013-07-25 14:50:00,
2013-07-25 10:55:00,61.2,50.6,30.23,ENE,61,3.0,4.0,68,0.00,,,0.00,Wunderground v.1.15,2013-07-25 14:55:00,
2013-07-25 11:05:00,61.9,50.8,30.23,ESE,103,3.0,4.0,67,0.00,,,0.00,Wunderground v.1.15,2013-07-25 15:05:00,
2013-07-25 11:10:00,62.4,51.7,30.23,East,79,3.0,3.0,68,0.00,,,0.00,Wunderground v.1.15,2013-07-25 15:10:00,
2013-07-25 11:20:00,63.1,52.0,30.23,ENE,67,3.0,4.0,67,0.00,,,0.00,Wunderground v.1.15,2013-07-25 15:20:00,
2013-07-25 11:25:00,63.3,51.3,30.23,SE,142,3.0,4.0,65,0.00,,,0.00,Wunderground v.1.15,2013-07-25 15:25:00,
2013-07-25 11:30:00,63.5,51.5,30.23,ENE,78,3.0,3.0,65,0.00,,,0.00,Wunderground v.1.15,2013-07-25 15:30:00,
2013-07-25 11:35:00,63.9,51.9,30.24,ESE,116,2.0,3.0,65,0.00,,,0.00,Wunderground v.1.15,2013-07-25 15:35:00,
2013-07-25 11:40:00,64.6,51.7,30.23,ESE,117,1.0,1.0,63,0.00,,,0.00,Wunderground v.1.15,2013-07-25 15:40:00,
2013-07-25 11:50:00,64.0,51.6,30.23,NE,47,3.0,5.0,64,0.00,,,0.00,Wunderground v.1.15,2013-07-25 15:50:00,
2013-07-25 11:55:00,63.9,51.5,30.23,SE,135,3.0,5.0,64,0.00,,,0.00,Wunderground v.1.15,2013-07-25 15:55:00,
2013-07-25 12:00:00,63.7,51.7,30.23,NNE,22,3.0,3.0,65,0.00,,,0.00,Wunderground v.1.15,2013-07-25 16:00:00,
2013-07-25 12:05:00,63.9,52.3,30.23,ENE,58,3.0,3.0,66,0.00,,,0.00,Wunderground v.1.15,2013-07-25 16:05:00,
2013-07-25 12:15:00,64.3,51.0,30.23,ENE,76,3.0,3.0,62,0.00,,,0.00,Wunderground v.1.15,2013-07-25 16:15:00,
2013-07-25 12:20:00,64.3,51.4,30.23,NE,38,2.0,2.0,63,0.00,,,0.00,Wunderground v.1.15,2013-07-25 16:20:00,
2013-07-25 12:25:00,63.9,52.3,30.23,NNE,33,3.0,4.0,66,0.00,,,0.00,Wunderground v.1.15,2013-07-25 16:25:00,
2013-07-25 12:30:00,63.9,52.3,30.23,NE,35,4.0,4.0,66,0.00,,,0.00,Wunderground v.1.15,2013-07-25 16:30:00,
2013-07-25 12:40:00,64.3,52.7,30.23,NNE,30,3.0,6.0,66,0.00,,,0.00,Wunderground v.1.15,2013-07-25 16:40:00,
2013-07-25 12:45:00,64.3,51.9,30.23,NNE,26,4.0,6.0,64,0.00,,,0.00,Wunderground v.1.15,2013-07-25 16:45:00,
2013-07-25 12:50:00,64.8,53.2,30.23,NE,36,4.0,4.0,66,0.00,,,0.00,Wunderground v.1.15,2013-07-25 16:50:00,
2013-07-25 12:55:00,65.3,53.2,30.23,ENE,71,3.0,7.0,65,0.00,,,0.00,Wunderground v.1.15,2013-07-25 16:55:00,
2013-07-25 13:00:00,65.0,52.1,30.23,East,92,4.0,4.0,63,0.00,,,0.00,Wunderground v.1.15,2013-07-25 17:00:00,
2013-07-25 13:05:00,65.7,53.2,30.23,NNE,23,3.0,4.0,64,0.00,,,0.00,Wunderground v.1.15,2013-07-25 17:05:00,
2013-07-25 13:10:00,65.6,52.7,30.23,NNE,19,3.0,4.0,63,0.00,,,0.00,Wunderground v.1.15,2013-07-25 17:10:00,
2013-07-25 13:15:00,65.6,53.9,30.23,NNE,33,3.0,4.0,66,0.00,,,0.00,Wunderground v.1.15,2013-07-25 17:15:00,
2013-07-25 13:20:00,65.8,53.7,30.23,NE,49,3.0,4.0,65,0.00,,,0.00,Wunderground v.1.15,2013-07-25 17:20:00,
2013-07-25 13:30:00,66.0,53.5,30.23,NE,49,3.0,3.0,64,0.00,,,0.00,Wunderground v.1.15,2013-07-25 17:30:00,
2013-07-25 13:35:00,66.0,54.3,30.23,NNE,28,3.0,4.0,66,0.00,,,0.00,Wunderground v.1.15,2013-07-25 17:35:00,
2013-07-25 13:40:00,66.3,54.2,30.23,NNE,26,3.0,3.0,65,0.00,,,0.00,Wunderground v.1.15,2013-07-25 17:40:00,
2013-07-25 13:45:00,66.7,54.6,30.23,ENE,74,3.0,5.0,65,0.00,,,0.00,Wunderground v.1.15,2013-07-25 17:45:00,
2013-07-25 13:55:00,66.8,54.2,30.23,SE,124,2.0,4.0,64,0.00,,,0.00,Wunderground v.1.15,2013-07-25 17:55:00,
2013-07-25 14:00:00,66.8,54.2,30.23,East,80,2.0,2.0,64,0.00,,,0.00,Wunderground v.1.15,2013-07-25 18:00:00,
2013-07-25 14:05:00,66.7,54.1,30.23,ENE,65,2.0,3.0,64,0.00,,,0.00,Wunderground v.1.15,2013-07-25 18:05:00,
2013-07-25 14:15:00,66.7,54.6,30.24,East,94,2.0,4.0,65,0.00,,,0.00,Wunderground v.1.15,2013-07-25 18:15:00,
2013-07-25 14:20:00,67.0,54.4,30.24,ENE,71,1.0,1.0,64,0.00,,,0.00,Wunderground v.1.15,2013-07-25 18:20:00,
2013-07-25 14:25:00,67.5,54.5,30.23,NE,35,1.0,4.0,63,0.00,,,0.00,Wunderground v.1.15,2013-07-25 18:25:00,
2013-07-25 14:30:00,67.0,54.8,30.23,NNE,21,2.0,6.0,65,0.00,,,0.00,Wunderground v.1.15,2013-07-25 18:30:00,
2013-07-25 14:35:00,67.1,55.4,30.23,NE,34,2.0,6.0,66,0.00,,,0.00,Wunderground v.1.15,2013-07-25 18:35:00,
2013-07-25 14:40:00,67.5,55.3,30.23,East,89,2.0,2.0,65,0.00,,,0.00,Wunderground v.1.15,2013-07-25 18:40:00,
2013-07-25 14:45:00,67.3,54.3,30.23,East,94,2.0,2.0,63,0.00,,,0.00,Wunderground v.1.15,2013-07-25 18:45:00,
2013-07-25 14:50:00,67.0,54.4,30.23,NE,53,3.0,5.0,64,0.00,,,0.00,Wunderground v.1.15,2013-07-25 18:50:00,
2013-07-25 14:55:00,66.9,54.3,30.22,ENE,63,3.0,5.0,64,0.00,,,0.00,Wunderground v.1.15,2013-07-25 18:55:00,
2013-07-25 15:00:00,67.1,54.9,30.23,North,360,3.0,3.0,65,0.00,,,0.00,Wunderground v.1.15,2013-07-25 19:00:00,
2013-07-25 15:05:00,67.4,54.8,30.23,ENE,74,3.0,4.0,64,0.00,,,0.00,Wunderground v.1.15,2013-07-25 19:05:00,
2013-07-25 15:10:00,67.3,54.7,30.23,NE,40,3.0,3.0,64,0.00,,,0.00,Wunderground v.1.15,2013-07-25 19:10:00,
2013-07-25 15:15:00,68.1,55.5,30.23,NE,50,3.0,4.0,64,0.00,,,0.00,Wunderground v.1.15,2013-07-25 19:15:00,
2013-07-25 15:25:00,68.3,55.6,30.22,West,271,3.0,3.0,64,0.00,,,0.00,Wunderground v.1.15,2013-07-25 19:25:00,
2013-07-25 15:30:00,68.9,55.3,30.22,ESE,107,2.0,2.0,62,0.00,,,0.00,Wunderground v.1.15,2013-07-25 19:30:00,
2013-07-25 15:35:00,69.3,55.3,30.22,ESE,119,2.0,2.0,61,0.00,,,0.00,Wunderground v.1.15,2013-07-25 19:35:00,
2013-07-25 15:40:00,68.9,54.9,30.22,East,92,3.0,3.0,61,0.00,,,0.00,Wunderground v.1.15,2013-07-25 19:40:00,
2013-07-25 15:45:00,68.6,55.1,30.22,NE,38,3.0,3.0,62,0.00,,,0.00,Wunderground v.1.15,2013-07-25 19:45:00,
2013-07-25 15:50:00,68.8,56.1,30.22,ENE,65,2.0,2.0,64,0.00,,,0.00,Wunderground v.1.15,2013-07-25 19:50:00,
2013-07-25 15:55:00,69.2,55.2,30.22,ENE,73,1.0,2.0,61,0.00,,,0.00,Wunderground v.1.15,2013-07-25 19:55:00,
2013-07-25 16:00:00,69.7,54.7,30.22,SE,142,1.0,4.0,59,0.00,,,0.00,Wunderground v.1.15,2013-07-25 20:00:00,
2013-07-25 16:05:00,69.3,56.2,30.22,WSW,249,2.0,4.0,63,0.00,,,0.00,Wunderground v.1.15,2013-07-25 20:05:00,
2013-07-25 16:15:00,70.6,55.6,30.22,NNW,345,0.0,1.0,59,0.00,,,0.00,Wunderground v.1.15,2013-07-25 20:15:00,
2013-07-25 16:20:00,70.0,55.0,30.22,ENE,78,1.0,3.0,59,0.00,,,0.00,Wunderground v.1.15,2013-07-25 20:20:00,
2013-07-25 16:25:00,69.2,55.6,30.22,East,84,2.0,3.0,62,0.00,,,0.00,Wunderground v.1.15,2013-07-25 20:25:00,
2013-07-25 16:35:00,69.1,55.1,30.21,East,101,1.0,3.0,61,0.00,,,0.00,Wunderground v.1.15,2013-07-25 20:35:00,
2013-07-25 16:40:00,69.0,55.4,30.21,East,87,1.0,1.0,62,0.00,,,0.00,Wunderground v.1.15,2013-07-25 20:40:00,
2013-07-25 16:45:00,68.9,55.8,30.21,NE,55,2.0,3.0,63,0.00,,,0.00,Wunderground v.1.15,2013-07-25 20:45:00,
2013-07-25 16:50:00,68.5,55.4,30.22,NNE,28,2.0,3.0,63,0.00,,,0.00,Wunderground v.1.15,2013-07-25 20:50:00,
2013-07-25 16:55:00,68.2,56.0,30.21,East,86,3.0,3.0,65,0.00,,,0.00,Wunderground v.1.15,2013-07-25 20:55:00,
2013-07-25 17:00:00,68.2,55.6,30.21,East,101,2.0,2.0,64,0.00,,,0.00,Wunderground v.1.15,2013-07-25 21:00:00,
2013-07-25 17:05:00,68.2,56.0,30.22,East,80,2.0,2.0,65,0.00,,,0.00,Wunderground v.1.15,2013-07-25 21:05:00,
2013-07-25 17:10:00,68.4,56.6,30.21,East,81,1.0,2.0,66,0.00,,,0.00,Wunderground v.1.15,2013-07-25 21:10:00,
2013-07-25 17:15:00,68.3,56.1,30.21,East,87,1.0,2.0,65,0.00,,,0.00,Wunderground v.1.15,2013-07-25 21:15:00,
2013-07-25 17:25:00,67.8,56.0,30.22,East,94,2.0,2.0,66,0.00,,,0.00,Wunderground v.1.15,2013-07-25 21:25:00,
2013-07-25 17:30:00,67.9,56.1,30.22,East,94,1.0,2.0,66,0.00,,,0.00,Wunderground v.1.15,2013-07-25 21:30:00,
2013-07-25 17:40:00,67.5,56.2,30.22,ENE,78,2.0,2.0,67,0.00,,,0.00,Wunderground v.1.15,2013-07-25 21:40:00,
2013-07-25 17:45:00,67.4,56.1,30.22,East,79,2.0,2.0,67,0.00,,,0.00,Wunderground v.1.15,2013-07-25 21:45:00,
2013-07-25 17:50:00,67.4,56.9,30.23,East,80,1.0,1.0,69,0.00,,,0.00,Wunderground v.1.15,2013-07-25 21:50:00,
2013-07-25 18:00:00,67.2,57.1,30.22,East,86,1.0,1.0,70,0.00,,,0.00,Wunderground v.1.15,2013-07-25 22:00:00,
2013-07-25 18:05:00,67.2,59.0,30.22,East,87,1.0,1.0,75,0.00,,,0.00,Wunderground v.1.15,2013-07-25 22:05:00,
2013-07-25 18:10:00,67.2,58.2,30.23,East,87,0.0,0.0,73,0.00,,,0.00,Wunderground v.1.15,2013-07-25 22:10:00,
2013-07-25 18:15:00,67.2,57.9,30.23,East,87,0.0,0.0,72,0.00,,,0.00,Wunderground v.1.15,2013-07-25 22:15:00,
2013-07-25 18:20:00,67.1,58.2,30.23,East,87,0.0,0.0,73,0.00,,,0.00,Wunderground v.1.15,2013-07-25 22:20:00,
2013-07-25 18:25:00,67.2,59.4,30.23,East,87,0.0,0.0,76,0.00,,,0.00,Wunderground v.1.15,2013-07-25 22:25:00,
2013-07-25 18:30:00,67.2,59.4,30.23,East,87,0.0,0.0,76,0.00,,,0.00,Wunderground v.1.15,2013-07-25 22:30:00,
2013-07-25 18:40:00,67.0,58.8,30.23,East,87,0.0,0.0,75,0.00,,,0.00,Wunderground v.1.15,2013-07-25 22:40:00,
2013-07-25 18:45:00,66.8,59.4,30.23,East,87,0.0,0.0,77,0.00,,,0.00,Wunderground v.1.15,2013-07-25 22:45:00,
2013-07-25 18:50:00,66.7,59.3,30.23,East,87,0.0,0.0,77,0.00,,,0.00,Wunderground v.1.15,2013-07-25 22:50:00,
2013-07-25 18:55:00,66.6,58.8,30.23,East,87,0.0,0.0,76,0.00,,,0.00,Wunderground v.1.15,2013-07-25 22:55:00,
2013-07-25 19:00:00,66.5,59.1,30.23,East,90,0.0,1.0,77,0.00,,,0.00,Wunderground v.1.15,2013-07-25 23:00:00,
2013-07-25 19:10:00,66.1,58.3,30.23,East,98,0.0,0.0,76,0.00,,,0.00,Wunderground v.1.15,2013-07-25 23:10:00,
2013-07-25 19:15:00,66.0,58.6,30.23,East,98,0.0,1.0,77,0.00,,,0.00,Wunderground v.1.15,2013-07-25 23:15:00,
2013-07-25 19:20:00,65.8,58.4,30.23,East,98,0.0,0.0,77,0.00,,,0.00,Wunderground v.1.15,2013-07-25 23:20:00,
2013-07-25 19:25:00,65.6,58.2,30.23,East,96,0.0,0.0,77,0.00,,,0.00,Wunderground v.1.15,2013-07-25 23:25:00,
2013-07-25 19:30:00,65.4,57.6,30.23,East,101,0.0,2.0,76,0.00,,,0.00,Wunderground v.1.15,2013-07-25 23:30:00,
2013-07-25 19:35:00,65.3,57.5,30.23,SE,127,1.0,2.0,76,0.00,,,0.00,Wunderground v.1.15,2013-07-25 23:35:00,
2013-07-25 19:40:00,65.2,57.4,30.23,East,87,1.0,1.0,76,0.00,,,0.00,Wunderground v.1.15,2013-07-25 23:40:00,
2013-07-25 19:45:00,65.1,57.3,30.23,East,101,1.0,3.0,76,0.00,,,0.00,Wunderground v.1.15,2013-07-25 23:45:00,
2013-07-25 19:50:00,65.0,56.9,30.23,SE,126,1.0,1.0,75,0.00,,,0.00,Wunderground v.1.15,2013-07-25 23:50:00,
2013-07-25 19:55:00,64.9,57.2,30.24,SE,128,1.0,1.0,76,0.00,,,0.00,Wunderground v.1.15,2013-07-25 23:55:00,
2013-07-25 20:00:00,65.0,57.2,30.23,ESE,117,0.0,0.0,76,0.00,,,0.00,Wunderground v.1.15,2013-07-26 00:00:00,
2013-07-25 20:05:00,65.0,56.9,30.24,East,94,0.0,2.0,75,0.00,,,0.00,Wunderground v.1.15,2013-07-26 00:05:00,
2013-07-25 20:15:00,64.8,57.8,30.23,ESE,105,0.0,1.0,78,0.00,,,0.00,Wunderground v.1.15,2013-07-26 00:15:00,
2013-07-25 20:20:00,64.6,57.6,30.23,ESE,106,0.0,0.0,78,0.00,,,0.00,Wunderground v.1.15,2013-07-26 00:20:00,
2013-07-25 20:25:00,64.3,56.9,30.23,ESE,106,0.0,0.0,77,0.00,,,0.00,Wunderground v.1.15,2013-07-26 00:25:00,
2013-07-25 20:30:00,64.1,57.1,30.23,ESE,106,0.0,0.0,78,0.00,,,0.00,Wunderground v.1.15,2013-07-26 00:30:00,
2013-07-25 20:35:00,63.8,56.8,30.23,ESE,106,0.0,0.0,78,0.00,,,0.00,Wunderground v.1.15,2013-07-26 00:35:00,
2013-07-25 20:40:00,63.6,57.3,30.24,ESE,106,0.0,0.0,80,0.00,,,0.00,Wunderground v.1.15,2013-07-26 00:40:00,
2013-07-25 20:45:00,63.3,56.7,30.24,ESE,106,0.0,1.0,79,0.00,,,0.00,Wunderground v.1.15,2013-07-26 00:45:00,
2013-07-25 20:50:00,63.2,56.2,30.24,East,95,1.0,1.0,78,0.00,,,0.00,Wunderground v.1.15,2013-07-26 00:50:00,
2013-07-25 20:55:00,63.3,56.3,30.24,East,99,1.0,1.0,78,0.00,,,0.00,Wunderground v.1.15,2013-07-26 00:55:00,
2013-07-25 21:00:00,63.4,56.4,30.24,ESE,117,1.0,1.0,78,0.00,,,0.00,Wunderground v.1.15,2013-07-26 01:00:00,
2013-07-25 21:05:00,63.5,56.5,30.23,East,84,1.0,1.0,78,0.00,,,0.00,Wunderground v.1.15,2013-07-26 01:05:00,
2013-07-25 21:15:00,63.6,56.6,30.23,East,93,0.0,1.0,78,0.00,,,0.00,Wunderground v.1.15,2013-07-26 01:15:00,
2013-07-25 21:20:00,63.6,56.6,30.23,East,89,0.0,1.0,78,0.00,,,0.00,Wunderground v.1.15,2013-07-26 01:20:00,
2013-07-25 21:25:00,63.6,57.0,30.23,East,90,0.0,1.0,79,0.00,,,0.00,Wunderground v.1.15,2013-07-26 01:25:00,
2013-07-25 21:30:00,63.5,56.9,30.23,East,90,1.0,2.0,79,0.00,,,0.00,Wunderground v.1.15,2013-07-26 01:30:00,
2013-07-25 21:35:00,63.5,57.2,30.23,East,90,1.0,2.0,80,0.00,,,0.00,Wunderground v.1.15,2013-07-26 01:35:00,
2013-07-25 21:40:00,63.5,56.9,30.24,East,90,0.0,0.0,79,0.00,,,0.00,Wunderground v.1.15,2013-07-26 01:40:00,
2013-07-25 21:45:00,63.5,56.9,30.24,East,90,0.0,0.0,79,0.00,,,0.00,Wunderground v.1.15,2013-07-26 01:45:00,
2013-07-25 21:55:00,63.4,56.8,30.24,East,90,0.0,2.0,79,0.00,,,0.00,Wunderground v.1.15,2013-07-26 01:55:00,
2013-07-25 22:00:00,63.2,56.9,30.23,East,91,1.0,1.0,80,0.00,,,0.00,Wunderground v.1.15,2013-07-26 02:00:00,
2013-07-25 22:05:00,63.1,56.8,30.23,ESE,111,1.0,1.0,80,0.00,,,0.00,Wunderground v.1.15,2013-07-26 02:05:00,
2013-07-25 22:10:00,63.0,56.7,30.24,ESE,111,1.0,1.0,80,0.00,,,0.00,Wunderground v.1.15,2013-07-26 02:10:00,
2013-07-25 22:15:00,63.0,57.1,30.24,ESE,106,0.0,1.0,81,0.00,,,0.00,Wunderground v.1.15,2013-07-26 02:15:00,
2013-07-25 22:20:00,62.9,57.3,30.24,ESE,105,0.0,0.0,82,0.00,,,0.00,Wunderground v.1.15,2013-07-26 02:20:00,
2013-07-25 22:25:00,62.8,56.9,30.24,ESE,106,0.0,0.0,81,0.00,,,0.00,Wunderground v.1.15,2013-07-26 02:25:00,
2013-07-25 22:30:00,62.7,57.1,30.24,ESE,105,1.0,1.0,82,0.00,,,0.00,Wunderground v.1.15,2013-07-26 02:30:00,
2013-07-25 22:35:00,62.7,57.1,30.24,East,101,1.0,1.0,82,0.00,,,0.00,Wunderground v.1.15,2013-07-26 02:35:00,
2013-07-25 22:40:00,62.7,57.5,30.24,East,101,1.0,1.0,83,0.00,,,0.00,Wunderground v.1.15,2013-07-26 02:40:00,
2013-07-25 22:45:00,62.7,57.5,30.23,East,92,1.0,2.0,83,0.00,,,0.00,Wunderground v.1.15,2013-07-26 02:45:00,
2013-07-25 22:55:00,62.6,57.4,30.24,East,98,0.0,1.0,83,0.00,,,0.00,Wunderground v.1.15,2013-07-26 02:55:00,
2013-07-25 23:00:00,62.6,57.4,30.23,East,88,1.0,2.0,83,0.00,,,0.00,Wunderground v.1.15,2013-07-26 03:00:00,
2013-07-25 23:05:00,62.7,57.5,30.24,East,84,2.0,2.0,83,0.00,,,0.00,Wunderground v.1.15,2013-07-26 03:05:00,
2013-07-25 23:10:00,62.7,57.5,30.24,East,84,1.0,2.0,83,0.00,,,0.00,Wunderground v.1.15,2013-07-26 03:10:00,
2013-07-25 23:15:00,62.6,57.4,30.23,East,83,1.0,3.0,83,0.00,,,0.00,Wunderground v.1.15,2013-07-26 03:15:00,
2013-07-25 23:20:00,62.6,57.7,30.23,East,83,1.0,2.0,84,0.00,,,0.00,Wunderground v.1.15,2013-07-26 03:20:00,
2013-07-25 23:25:00,62.6,57.7,30.23,East,83,1.0,2.0,84,0.00,,,0.00,Wunderground v.1.15,2013-07-26 03:25:00,
2013-07-25 23:35:00,62.5,57.6,30.23,East,92,1.0,2.0,84,0.00,,,0.00,Wunderground v.1.15,2013-07-26 03:35:00,
2013-07-25 23:40:00,62.5,57.6,30.23,East,92,1.0,2.0,84,0.00,,,0.00,Wunderground v.1.15,2013-07-26 03:40:00,
2013-07-25 23:50:00,62.5,57.9,30.23,East,85,1.0,1.0,85,0.00,,,0.00,Wunderground v.1.15,2013-07-26 03:50:00,
2013-07-25 23:55:00,62.5,57.9,30.23,East,98,1.0,4.0,85,0.00,,,0.00,Wunderground v.1.15,2013-07-26 03:55:00,